Wind_Speed
17 17 16 16 19 21 22 23 25 24 26 30 32 27 30 29 28 27 25 24 24 23 22 22 24 21 19 20 17 18 15 13 3 2 10 7 4 6 7 7 8 10 13
19 20 22 19 21 22 22 24 26 28 26 28 29 30 30 29 29 29 29 26 26 25 23 22 24 20 20 15 16 15 15 9 14 5 5 5 7 8 9 8 7 7 7
19 22 24 26 23 24 24 25 27 28 28 29 30 29 31 32 32 33 30 28 27 25 25 25 23 22 21 16 17 14 16 13 11 14 7 8 8 10 9 7 4 5 4
19 22 25 27 28 28 27 27 29 29 30 30 31 31 33 32 33 32 30 29 25 23 25 24 22 24 20 17 17 14 12 13 13 6 8 9 9 10 12 9 5 5 3
26 27 28 28 29 32 33 31 29 31 32 31 31 32 33 33 33 32 31 27 24 23 23 22 22 21 17 17 15 16 15 14 9 10 9 11 11 10 12 10 8 7 4
29 31 32 32 31 33 33 33 30 32 34 30 33 33 34 33 35 36 30 26 26 24 23 22 19 18 18 17 19 7 14 11 13 11 10 11 13 11 10 11 10 10 3
33 35 32 32 35 34 34 32 33 31 31 31 33 34 35 35 35 38 31 26 26 24 22 22 19 18 16 16 19 15 10 12 12 10 10 11 12 14 13 13 12 14 8
34 34 33 34 35 34 31 32 33 31 31 32 34 36 33 32 36 39 34 26 24 23 22 22 21 18 18 16 14 13 13 12 14 13 12 9 9 11 14 14 12 7 7
35 34 33 36 36 37 29 31 30 31 32 34 34 35 34 30 41 42 37 26 22 22 21 20 18 17 18 19 14 12 12 11 11 11 10 10 11 11 14 11 9 11 6
36 27 31 31 33 29 30 31 32 26 32 32 32 34 33 28 43 44 34 25 23 22 20 18 18 15 18 19 14 13 13 11 9 6 7 6 7 6 13 13 12 11 7
31 31 34 34 34 30 30 30 30 27 31 33 34 32 28 30 43 42 31 26 25 22 19 16 15 13 16 15 17 10 10 10 11 8 8 9 9 11 14 11 11 14 12
35 31 30 31 31 29 30 30 28 34 34 31 31 29 25 29 37 39 25 24 23 19 17 18 18 19 17 15 14 9 10 11 10 10 10 10 12 12 13 10 10 14 15
34 29 29 34 32 35 30 28 33 37 29 24 24 21 24 27 30 31 25 17 23 17 16 16 14 17 16 16 14 12 12 11 12 11 10 13 15 15 14 10 6 14 10
31 25 31 32 34 19 21 30 32 24 24 22 22 21 24 28 27 23 24 23 20 16 18 15 14 15 13 14 15 13 10 12 14 12 11 10 11 12 14 12 10 10 8
28 28 31 46 59 45 34 31 29 27 29 27 27 30 29 26 27 27 24 21 20 19 17 16 15 14 13 13 12 12 11 13 10 10 13 12 13 13 13 13 11 11 12
25 17 24 12 10 27 26 26 25 23 24 25 31 30 28 29 31 29 25 22 22 24 17 15 13 13 14 13 14 16 15 15 13 15 15 16 13 13 12 11 12 12 13
19 20 23 8 15 19 22 24 11 29 32 32 26 26 28 38 36 31 25 23 21 22 12 15 14 15 14 15 14 14 13 13 15 14 12 12 11 10 10 9 9 9 8
16 17 20 6 14 19 23 25 27 23 18 21 28 29 31 33 33 29 27 24 20 10 10 13 15 15 16 16 14 11 12 12 11 12 11 11 10 10 8 7 9 10 8
12 12 7 14 20 23 24 24 25 27 23 20 27 28 30 32 30 27 25 19 17 12 11 13 14 16 17 16 14 14 14 14 13 12 12 12 11 10 10 9 10 7 5
13 9 10 16 21 25 17 21 24 25 24 23 21 21 29 29 20 20 12 13 14 11 12 12 14 16 22 13 11 12 12 13 12 11 11 11 12 10 9 10 7 9 10
6 6 11 18 18 22 23 20 25 25 24 22 19 22 24 21 18 16 13 12 13 13 12 13 16 16 18 15 13 11 10 11 11 11 10 10 9 8 8 9 10 6 4
10 12 16 18 21 22 23 24 25 24 24 24 23 23 18 19 17 15 14 13 13 12 13 15 13 16 14 14 14 12 12 11 11 8 9 10 8 7 8 7 6 7 9
20 18 18 19 19 22 21 22 24 25 26 24 25 21 14 18 18 16 14 14 17 18 18 15 13 9 9 10 9 9 10 9 8 7 7 7 7 10 7 5 3 3 6
24 22 22 23 24 20 22 21 22 27 28 25 20 21 20 18 16 15 16 16 17 17 17 15 14 14 10 10 9 7 10 8 8 8 6 6 4 1 2 1 3 6 7
23 21 22 20 20 21 22 22 23 27 25 22 22 23 20 18 17 16 15 16 17 18 17 15 14 12 11 10 7 7 9 8 7 5 6 5 3 2 3 6 6 7 9
23 23 24 22 22 22 22 22 23 24 25 24 23 21 20 20 20 23 20 17 19 18 18 16 14 11 9 7 8 10 9 8 5 3 3 4 7 10 12 15 16 18 17
Wind_Direction
285 285 278 275 272 273 270 267 272 259 255 253 250 246 229 222 214 209 210 203 202 204 204 204 208 220 214 210 222 231 241 245 270 195 148 147 163 197 235 238 241 247 242
285 288 289 283 277 270 269 271 269 269 261 253 244 238 233 223 214 206 204 203 202 201 201 207 206 209 215 204 219 228 238 231 247 247 192 184 202 214 227 233 231 247 236
294 287 288 287 280 274 271 273 271 269 262 254 243 232 222 222 209 206 203 207 198 200 195 207 208 205 204 204 223 219 222 242 234 248 202 211 204 203 199 203 216 228 229
291 292 285 283 282 279 271 270 272 271 262 250 241 234 224 216 210 204 202 206 193 198 202 203 206 207 201 200 213 222 225 232 226 257 187 192 201 201 215 206 200 207 191
289 291 285 279 275 275 272 266 268 270 264 247 239 228 225 215 207 201 202 196 188 196 193 198 206 207 200 205 211 211 224 224 221 232 208 210 200 206 211 203 200 190 191
286 289 286 277 272 267 264 265 267 266 260 242 236 226 220 214 206 195 195 184 189 188 186 195 197 191 195 198 209 194 211 206 224 233 225 207 208 215 219 195 188 180 193
282 287 281 275 273 262 259 262 263 262 255 235 232 227 213 206 199 190 185 178 182 182 184 189 187 191 192 203 211 216 204 211 222 235 244 233 238 207 207 206 193 196 216
284 283 277 279 274 266 257 254 256 262 247 230 225 220 204 191 189 179 177 176 177 179 184 187 191 181 188 196 199 209 219 226 235 241 245 263 248 212 205 208 195 168 113
285 281 275 268 267 266 257 254 254 257 235 224 219 204 194 182 177 174 172 170 172 178 183 189 193 193 186 196 201 202 212 203 212 218 228 238 240 218 196 188 175 174 165
276 275 273 271 268 266 260 262 258 261 234 215 206 197 184 172 174 175 172 168 166 175 178 181 186 196 182 197 202 201 202 192 192 204 195 196 192 190 190 186 183 196 166
284 270 263 266 267 261 258 262 258 265 223 203 196 183 169 169 174 174 167 164 171 171 177 169 182 185 184 194 196 199 210 190 184 188 178 177 174 180 188 200 203 195 180
275 265 262 265 269 265 261 260 252 265 207 191 182 168 158 168 172 169 171 162 170 174 172 167 171 183 180 184 178 188 185 174 164 170 168 166 172 178 192 202 201 209 214
275 270 272 271 269 263 243 250 274 203 181 162 147 138 140 154 162 166 165 160 161 161 152 156 158 175 175 172 173 179 170 166 167 169 175 182 191 191 190 187 191 192 179
278 276 278 276 270 225 233 253 200 161 151 142 141 143 148 148 156 149 140 148 143 132 138 144 164 161 155 168 172 173 176 181 182 190 189 184 186 188 196 198 201 200 207
271 271 263 249 240 255 248 176 152 154 160 162 155 155 147 149 160 159 155 158 155 152 139 139 145 153 152 160 169 179 181 184 188 174 173 169 179 185 195 199 210 212 217
278 290 300 84 125 113 103 90 129 144 161 151 148 150 146 147 153 160 164 162 159 155 155 155 161 162 168 167 172 177 177 180 188 187 183 179 185 196 200 194 211 215 239
299 309 321 62 102 115 110 108 103 94 122 128 134 141 148 153 160 159 157 155 153 156 166 148 169 165 168 172 181 168 169 171 167 163 167 169 175 180 193 201 213 214 235
296 295 306 97 103 110 119 126 128 125 113 98 119 135 145 151 152 151 147 145 148 176 162 161 166 165 171 177 189 167 158 162 165 161 167 169 174 182 192 218 212 213 216
256 281 251 130 126 118 126 130 124 125 116 112 106 121 138 141 144 148 148 154 167 169 157 163 166 171 176 186 183 172 166 160 165 169 167 169 175 181 193 209 227 229 209
253 244 175 145 135 133 127 126 125 123 127 124 125 131 136 136 137 147 161 161 171 160 157 159 161 167 176 180 169 163 150 159 165 168 169 173 178 181 195 216 219 211 208
204 193 160 143 144 135 136 146 135 137 133 129 133 141 138 138 144 157 154 155 165 163 160 160 161 168 183 182 180 175 170 172 177 174 176 176 177 189 213 214 204 220 231
230 170 167 149 147 145 147 139 132 126 127 133 138 154 159 148 153 150 155 164 162 160 158 159 167 175 173 176 176 173 177 175 171 168 180 179 179 194 199 208 210 216 230
191 180 166 148 140 134 131 133 126 123 125 136 141 143 145 122 109 101 105 109 123 145 157 151 150 142 153 178 171 177 177 164 165 165 171 177 191 206 207 194 182 243 276
170 173 149 142 142 134 133 124 124 129 136 132 121 112 107 107 108 103 113 119 127 136 148 155 145 128 108 112 110 114 136 121 146 155 163 175 194 167 103 77 281 273 253
151 141 139 129 126 122 120 128 133 132 130 118 115 108 108 108 108 109 111 118 121 122 122 127 134 141 123 102 113 136 144 131 132 154 159 171 184 162 135 123 103 95 94
140 129 123 120 124 125 123 117 118 122 118 113 111 112 113 114 113 115 111 114 112 111 111 109 109 122 140 138 138 150 160 169 170 164 141 140 121 108 106 98 93 86 80
Height
708 708 706 706 705 705 704 704 703 702 701 701 702 700 700 700 700 702 706 709 712 716 718 722 727 731 732 735 738 740 741 741 742 741 745 749 751 754 757 758 757 757 756
701 699 698 698 699 699 698 697 695 692 690 692 691 691 692 692 693 695 699 701 706 709 712 718 722 726 730 730 733 736 738 739 740 739 743 748 751 753 755 756 755 755 754
697 695 694 692 692 691 690 689 687 685 681 681 681 681 682 685 685 689 691 696 699 702 706 714 717 722 725 727 731 732 736 738 738 740 743 746 749 750 752 754 753 753 752
693 692 689 686 684 682 682 681 679 675 672 671 670 671 672 675 678 681 685 691 693 696 703 709 713 718 719 722 730 731 733 734 736 738 740 744 747 748 750 751 752 752 752
686 685 684 681 678 675 672 672 669 666 661 662 660 663 665 666 668 673 679 682 687 694 699 705 710 713 715 720 725 728 730 731 734 737 739 742 743 745 747 748 749 750 751
680 679 677 674 671 667 663 659 659 656 652 652 650 653 655 657 660 666 673 675 685 690 695 702 706 709 713 718 722 724 726 729 732 734 736 738 740 742 744 745 746 748 750
671 669 668 666 661 658 653 650 647 646 641 640 642 643 644 648 651 660 665 674 681 685 692 698 703 707 712 717 719 723 725 727 729 732 734 736 737 736 741 743 743 745 744
660 658 659 659 653 648 644 642 638 635 630 630 631 633 635 641 646 652 664 673 678 682 689 695 699 703 708 713 717 721 724 726 727 730 732 733 734 735 738 740 742 744 746
649 648 651 649 644 638 633 630 629 625 622 622 625 627 631 637 641 650 662 669 674 681 687 693 696 700 704 710 714 718 721 723 725 727 729 731 732 733 735 738 740 743 746
639 638 639 636 631 627 624 622 619 616 612 614 616 621 628 632 640 648 657 662 672 679 684 689 693 698 702 708 713 716 719 722 725 727 728 730 732 733 735 737 740 741 743
630 629 626 624 621 617 615 614 610 606 605 606 611 618 627 632 641 647 653 659 669 674 679 687 692 696 701 706 711 714 717 720 723 726 728 729 731 733 735 737 739 741 743
619 612 612 608 607 606 604 600 598 599 597 600 607 617 626 636 640 648 654 659 665 671 677 684 689 696 701 705 710 712 716 719 722 724 727 728 730 732 735 737 738 739 741
607 602 600 595 595 591 592 590 592 589 591 599 605 616 624 633 641 648 655 659 665 672 677 682 689 696 700 704 709 712 715 719 721 724 726 727 729 731 734 736 736 738 741
593 589 584 578 572 575 577 583 581 585 591 597 607 616 624 631 640 648 653 659 665 672 678 684 690 696 701 705 709 712 715 718 720 722 725 727 730 730 732 734 737 739 740
587 578 570 556 555 558 582 571 575 584 590 596 603 612 618 629 638 645 652 660 666 673 681 686 693 697 701 705 708 712 715 717 719 721 723 727 730 730 731 734 735 736 737
578 564 548 532 524 548 558 569 578 587 592 597 605 612 622 630 639 648 655 660 665 673 681 686 692 697 700 703 706 709 712 715 717 720 722 725 728 730 731 732 734 734 735
571 564 558 554 560 563 565 569 582 593 599 606 612 617 623 632 642 650 656 662 669 675 679 685 691 695 699 702 704 706 709 712 715 719 722 724 726 728 731 731 732 733 733
573 569 564 559 560 562 567 576 582 591 602 614 619 623 629 637 644 652 658 665 673 677 679 685 690 694 698 701 703 706 709 712 715 718 720 722 725 728 729 730 730 731 732
574 572 568 567 569 571 576 580 586 595 607 617 622 631 639 644 651 657 662 667 672 676 681 685 689 693 697 700 702 705 707 711 714 717 719 721 724 727 728 730 731 731 732
574 573 572 573 575 578 583 587 593 601 611 622 632 639 644 649 655 661 666 669 673 677 681 685 689 692 696 699 702 704 708 711 713 716 718 721 723 725 727 729 729 731 731
573 571 574 578 581 584 587 593 595 603 614 626 636 642 647 652 659 663 667 671 674 678 682 685 689 692 696 699 702 705 707 709 712 714 717 719 722 724 726 726 728 729 729
575 574 578 580 584 587 591 595 601 609 618 630 639 646 650 653 660 664 668 672 675 679 683 686 689 692 695 698 701 704 706 708 711 713 716 719 721 723 724 725 726 727 728
576 576 579 582 587 591 597 602 609 616 626 634 641 648 651 656 661 666 670 673 676 680 683 687 690 693 696 698 701 703 706 708 710 713 715 718 720 721 722 723 725 726 727
574 577 581 586 592 597 602 608 614 621 630 638 645 651 655 661 667 671 675 677 680 682 686 690 692 695 699 700 703 705 706 709 711 714 716 718 720 721 723 724 725 724 726
576 580 586 591 596 601 608 614 620 628 637 643 649 653 660 666 671 675 678 681 683 686 689 691 694 697 700 703 705 706 709 711 713 715 716 718 720 722 723 723 725 726 727
579 585 591 597 603 608 614 620 628 635 641 647 653 660 665 669 674 678 682 685 687 690 693 695 698 700 702 704 706 708 711 713 715 717 718 720 721 723 725 726 728 730 731